STARLINK-11485, 62229

Orbit data source: Space-Track

STARLINK-11485, 62229 is a payload satellite owned by SpaceX/Seattle (US) in LEO that was launched on Thu, 05 Dec 2024 UTC via an FALCON 9 launch vehicle from the Air Force Western Test Range (AFWTR). Payload-class satellites include a variety of spacecraft equipped with specific instruments for various scientific and technological missions. These include communications satellites like Starlink; space stations such as the ISS; scientific satellites like the Hubble; Earth observation satellites from companies like Planet Labs, Umbra, and HawkEye 360; GPS; miniature CubeSats for education and research; and military/defense satellites.

Loading next visibility...
Identifier
62229, 2024-231M
Orbit
LEO
Country
Flag of USUS
Related business
Manufacturer
SpaceX/Seattle
Mission
Operational Commercial Communications
Bus & Motor
STARLINK V2MD, Unknown motor
Mass
960 kg wet, ~910 kg dry
Launch date (UTC)
2024-12-05 (11 months ago)
Launch vehicle
FALCON 9
Launch site
Air Force Western Test Range (AFWTR)
Object type
Payload
Rocket body
Debris
Shape & HBR
Box + 2 Pan, 18.1 m
Radar Cross Section
36.964 m², Large (>1 m²)

Expand to show TLE details & history
Last TLE update: 1 day ago

TLE from 1 day ago
0 STARLINK-11485
1 62229U 24231M   25306.41951833  .00230500  00000-0  18516-2 0  9996
2 62229  53.1578   8.5579 0002143  33.8586 326.2568 15.69753934 53427
Epoch: 2025-11-02T10:04Z
TLE epoch observation values (Epoch: 2025-11-02T10:04:06.383Z)
Latitude
-0.00007°
Longitude
175.59574°
Altitude
359.315 km
Speed
7.696 km/s
True Right ascension
00h 34m 13s
True Declination
0° 00' 00"
Sunlit
Object was in full shadow at epoch
Visualization orbit readout
Latitude
Unknown
Longitude
Unknown
Altitude
Unknown
Speed
Unknown
Apparent Right ascension
Unknown
Apparent Declination
Unknown
Sunlit
N/A
Visualization observer readout
Local Sidereal Time
13:47:19
Azimuth
Unknown
Elevation
Unknown
Doppler factor
Unknown
Orbital elements
Apogee altitude
361.306 km
Perigee altitude
358.418 km
Semi-major axis
6,737.999 km
Eccentricity
0.00021
Inclination
53.1578°
RAAN
8.5579°
Arg. of periapsis
33.8586°
True anomaly
326.24316°
Mean anomaly
326.2568°
Eccentric anomaly
326.24998°
Mean motion
3.92416 °/min
Orbital period
91.74 mins
BSTAR
0.0018516
Loading maneuver chart data...
Computing Atmospheric mass density...
Loading historical data...
Loading historical data...
Loading historical data...
Loading historical data...
Loading historical data...
Loading historical data...
Loading historical data...

Documentation

Showing up to 5 results
|